Home > Weather > Orenburg > Past weeks

Flag for Russia Past Weather in Orenburg, Russia — Yesterday and Last 2 Weeks

Now
72 °F

Passing clouds.


Feels Like: 77 °F
Forecast: 66 / 85 °F
Wind: 3 mph from South

Location: Orenburg / Tsentralny

Current Time: Aug 26, 2016 at 10:17:12 AM

Latest Report: Aug 26, 2016 at 9:30 AM


Visibility: N/A

Pressure: 30.04 "Hg

Humidity: 53%

Dew Point: 54 °F

Location of OrenburgLocation

Past Weather in Orenburg — Graph

°F

Orenburg Temperature Yesterday

Maximum temperature yesterday: 95 °F (at 4:00 PM)
Minimum temperature yesterday: 59 °F (at 7:00 AM)
Average temperature yesterday: 77 °F

High & Low Weather Summary for the Past Weeks

 TemperatureHumidityPressure
High99 °F (Aug 12, 2:00 PM)77% (Aug 23, 4:00 AM)30.36 "Hg (Aug 23, 4:00 AM)
Low55 °F (Aug 22, 6:00 AM)10% (Aug 16, 3:30 PM)29.92 "Hg (Aug 11, 6:00 PM)
Average80 °F36%30.13 "Hg
* Reported Aug 11 9:00 AM — Aug 26 9:00 AM, Orenburg, Weather by CustomWeather, © 2016

Note: Actual official high and low records may vary slightly from our data, if they occured in-between our weather recording intervals... More about our weather records

Advertising

Orenburg Weather History for the Previous 24 Hours

Scroll right to see more
 ConditionsComfort  
Time TempWeatherWind HumidityBarometerVisibility
9:00 AM
Fri, Aug 26
70 °FSunny.1 mph57%30.04 "Hg10 mi
8:30 AM68 °FSunny.3 mph60%30.04 "Hg10 mi
8:00 AM68 °FPassing clouds.3 mph60%30.04 "HgN/A
7:30 AM66 °FPassing clouds.3 mph60%30.04 "HgN/A
7:00 AM64 °FClear.1 mph64%30.04 "Hg10 mi
6:30 AM64 °FClear.3 mph60%30.01 "Hg10 mi
6:00 AM63 °FClear.3 mph59%30.01 "Hg10 mi
5:30 AM64 °FClear.1 mph60%30.01 "Hg10 mi
5:00 AM63 °FClear.1 mph59%30.01 "Hg10 mi
4:30 AM64 °FClear.1 mph56%30.01 "Hg10 mi
4:00 AM64 °FClear.3 mph56%30.01 "Hg10 mi
3:30 AM64 °FClear.3 mph60%30.01 "Hg10 mi
3:00 AM64 °FClear.3 mph60%30.01 "Hg10 mi
2:30 AM64 °FClear.3 mph64%30.01 "Hg10 mi
2:00 AM64 °FClear.6 mph60%30.01 "Hg10 mi
1:30 AM66 °FClear.3 mph56%30.04 "Hg10 mi
1:00 AM68 °FClear.3 mph49%30.04 "Hg10 mi
12:30 AM68 °FClear.1 mph46%30.04 "Hg10 mi
12:00 AM68 °FClear.1 mph46%30.04 "Hg10 mi
11:30 PM
Thu, Aug 25
70 °FClear.No wind43%30.04 "Hg10 mi
11:00 PM72 °FClear.No wind41%30.04 "Hg10 mi
10:30 PM73 °FClear.3 mph41%30.04 "Hg10 mi
10:00 PM77 °FPassing clouds.6 mph36%30.04 "HgN/A
9:30 PM81 °FPassing clouds.6 mph32%30.04 "HgN/A
9:00 PM81 °FScattered clouds.6 mph32%30.04 "HgN/A
8:30 PM82 °FScattered clouds.6 mph30%30.04 "HgN/A
8:00 PM86 °FScattered clouds.8 mph27%30.04 "HgN/A
7:30 PM88 °FScattered clouds.10 mph25%30.04 "HgN/A
7:00 PM91 °FScattered clouds.10 mph21%30.01 "HgN/A
6:30 PM90 °FScattered clouds.6 mph24%30.01 "HgN/A
6:00 PM90 °FScattered clouds.8 mph24%30.04 "HgN/A
5:30 PM91 °FThunderstorms. Scattered clouds.6 mph20%30.04 "HgN/A
5:00 PM93 °FThunderstorms. Scattered clouds.3 mph17%30.04 "HgN/A
4:30 PM93 °FThunderstorms. Scattered clouds.3 mph17%30.04 "HgN/A
4:00 PM95 °FScattered clouds.6 mph16%30.04 "HgN/A
3:30 PM93 °FScattered clouds.3 mph17%30.04 "HgN/A
3:00 PM93 °FScattered clouds.1 mph17%30.04 "HgN/A
2:30 PM91 °FScattered clouds.6 mph20%30.07 "HgN/A
2:00 PM91 °FPassing clouds.6 mph20%30.07 "HgN/A
1:30 PM91 °FSunny.3 mph20%30.07 "Hg10 mi
1:00 PM90 °FSunny.3 mph22%30.07 "Hg10 mi
12:30 PM90 °FSunny.3 mph22%30.09 "Hg10 mi
12:00 PM88 °FSunny.3 mph24%30.09 "Hg10 mi
11:30 AM88 °FSunny.3 mph25%30.09 "Hg10 mi
11:00 AM86 °FSunny.1 mph27%30.09 "Hg10 mi
10:30 AM82 °FSunny.1 mph32%30.09 "Hg10 mi
10:00 AM79 °FPassing clouds.3 mph39%30.12 "HgN/A
Weather by CustomWeather, © 2016

See weather overviewHow to use our weather pages